Theta_e
307 305 305 305 306 309 307 305 305 305 306 310 309 309 310 308 306 304 305 305 305 305 307 308 308 308 308 308 308 308 307 306 305 307 307 311 311 312 312 313 316 317 314 319
303 304 306 308 308 305 308 305 305 306 308 310 310 309 309 308 307 304 303 303 303 304 305 307 307 308 307 307 307 307 307 306 305 305 306 308 309 310 310 312 311 316 315 314
303 305 308 309 306 306 303 305 305 306 307 308 309 310 310 308 305 304 304 303 304 304 304 305 305 305 307 307 307 307 307 305 305 304 305 305 306 308 308 309 311 310 314 312
304 306 307 305 305 305 306 303 305 306 306 308 306 309 310 308 305 304 303 302 304 305 303 304 304 304 307 307 306 307 307 305 304 304 304 304 304 306 306 307 309 309 309 310
304 303 304 302 303 305 304 304 306 306 306 308 308 304 310 310 305 304 302 303 303 301 302 303 304 305 306 306 306 307 307 305 304 304 304 304 304 304 305 305 307 309 308 307
303 303 303 303 303 305 306 307 307 308 308 310 310 305 309 307 306 305 304 303 303 302 303 305 305 305 307 306 306 306 306 306 305 304 304 304 303 304 304 304 306 306 307 306
305 303 303 305 306 305 307 313 315 314 309 315 310 308 307 305 306 305 304 303 302 303 303 304 305 305 306 306 306 306 306 305 304 304 303 303 302 303 304 304 305 305 306 305
305 304 303 304 304 305 305 309 314 316 315 309 310 307 308 306 305 305 304 303 303 303 304 304 305 306 305 306 306 305 306 305 304 303 303 303 302 302 303 303 304 304 304 305
308 303 302 303 303 305 307 307 306 309 312 308 306 309 307 304 304 303 303 304 303 303 303 304 305 306 306 306 306 305 306 305 304 303 303 302 302 302 302 302 303 303 303 304
309 303 303 302 302 303 308 306 306 305 306 309 312 308 308 304 303 303 303 303 304 303 304 304 304 305 305 306 306 305 305 305 304 303 302 302 301 301 301 301 302 302 302 303
310 304 303 302 303 304 303 304 307 308 308 309 310 306 306 304 303 303 303 304 303 303 303 303 304 305 305 305 305 305 305 304 304 303 302 301 301 301 301 301 300 301 301 302
309 305 303 305 303 303 303 309 306 301 305 305 305 303 304 303 303 303 303 304 303 302 302 304 304 304 304 304 304 304 304 304 303 303 302 302 301 301 300 300 300 299 300 300
305 307 301 305 304 302 306 304 303 298 301 305 304 307 304 304 303 303 302 302 303 303 303 304 304 303 303 304 303 303 303 304 303 303 302 302 301 301 300 299 299 299 299 300
307 308 305 304 306 302 297 302 297 293 294 300 303 305 305 303 303 303 303 303 302 303 303 302 303 303 303 303 303 303 303 303 303 302 302 302 301 301 300 299 298 298 298 300
304 300 299 303 307 305 304 302 303 294 298 299 302 300 300 300 301 302 302 303 303 302 303 302 302 303 303 303 303 303 302 303 303 303 302 301 301 300 299 298 297 298 298 298
305 304 305 303 304 303 303 304 304 302 299 299 298 298 299 301 302 303 303 303 303 303 303 303 303 303 303 303 303 302 302 301 302 302 302 301 301 300 299 297 297 297 298 298
304 301 301 305 305 302 298 302 303 304 303 301 301 301 302 303 303 303 303 303 303 302 303 302 303 303 303 303 303 303 302 301 301 302 301 300 300 299 298 296 296 297 298 297
304 303 301 301 304 296 302 303 303 303 303 303 303 302 302 302 301 302 301 301 302 302 302 302 302 303 303 303 303 303 303 302 301 301 301 300 300 299 298 296 296 296 297 296
304 303 299 298 304 304 306 303 302 302 302 303 303 303 302 302 301 301 301 300 300 301 301 301 301 300 300 300 300 301 303 303 302 301 301 300 299 298 297 295 295 296 296 295
306 305 302 301 300 301 305 303 303 302 301 304 303 302 301 300 299 300 299 300 300 299 300 300 300 299 299 299 299 299 300 302 302 302 302 301 299 297 295 295 295 295 295 294
303 301 298 299 301 305 306 302 302 302 302 302 300 300 300 299 298 298 300 299 300 300 300 300 300 299 300 300 299 299 299 300 301 302 302 300 297 295 295 295 295 295 294 295
303 300 297 300 297 303 303 302 302 301 300 300 300 299 299 299 299 299 299 299 299 299 299 299 299 299 299 299 299 299 299 299 300 302 299 297 297 295 295 295 295 294 294 294
304 303 304 302 302 303 303 300 300 299 299 299 298 298 298 298 298 299 299 299 299 298 297 297 298 299 299 299 299 298 298 298 300 302 301 299 296 295 295 294 294 294 294 294
305 304 301 302 305 305 301 300 299 298 298 298 297 297 296 296 296 296 297 297 298 297 297 296 296 297 298 297 298 298 300 302 302 301 299 296 295 295 294 294 294 294 294 293
302 303 304 302 303 301 300 299 298 298 297 297 296 296 296 296 295 295 295 295 294 295 294 294 294 294 294 294 294 294 294 295 297 298 297 296 294 294 294 294 293 293 293 292
301 301 300 301 300 300 298 298 298 297 297 296 296 296 296 295 295 295 294 294 294 294 293 293 293 292 292 292 292 292 293 292 291 292 293 293 293 293 292 292 291 291 291 291
Wind_Speed
9 10 5 7 7 5 12 12 8 2 3 8 10 8 7 7 9 9 8 8 8 7 14 14 16 15 19 21 24 26 24 28 34 32 31 31 31 29 28 30 28 29 32 30
8 8 7 7 10 14 9 13 6 2 2 6 11 8 7 8 6 7 9 8 8 7 10 16 17 12 18 19 22 24 24 24 28 29 29 25 24 24 27 28 28 24 27 28
8 4 5 9 12 10 11 6 5 4 1 2 8 3 7 6 8 8 7 7 6 5 4 8 12 16 13 18 20 20 22 21 25 27 27 26 24 25 29 31 30 30 25 26
7 4 7 9 6 5 4 5 3 4 3 3 6 3 6 9 8 8 8 7 6 3 7 13 16 17 12 16 18 20 21 18 22 25 26 25 27 23 26 26 25 26 29 25
1 7 7 7 3 4 3 2 4 4 5 3 4 5 5 10 8 7 8 7 5 8 10 13 17 16 14 14 16 17 18 17 20 23 23 23 25 24 24 25 25 26 27 28
4 3 5 3 1 2 5 3 5 3 1 2 3 5 5 5 6 7 6 7 8 8 10 12 11 14 13 14 14 15 16 18 18 21 22 21 23 23 24 26 26 26 27 29
4 3 2 4 3 3 2 5 3 4 3 4 3 4 4 7 8 9 8 8 7 8 7 6 10 9 13 11 8 12 13 16 18 21 22 19 21 20 21 23 24 25 26 28
4 4 7 7 3 2 4 3 4 5 2 3 1 3 5 6 8 8 8 8 8 7 5 6 9 10 10 10 4 9 9 11 14 17 17 16 20 20 19 20 21 22 23 23
5 2 2 7 6 4 2 4 1 4 2 2 3 3 5 7 7 6 7 8 7 6 5 6 6 4 6 6 2 5 5 7 10 14 16 15 17 18 19 20 20 21 22 22
3 5 3 3 2 6 4 3 3 3 3 2 5 4 4 8 8 7 6 7 6 5 4 2 2 4 6 7 6 4 1 4 6 10 14 17 17 16 18 19 19 20 21 21
4 5 1 3 1 4 1 2 4 3 3 4 1 4 5 6 7 7 5 6 6 5 2 2 2 2 3 6 7 4 4 5 4 8 12 16 15 16 17 18 19 19 20 20
1 6 3 2 3 6 3 3 5 4 4 2 3 5 6 8 7 7 6 5 7 7 7 6 3 3 2 4 5 7 9 7 5 7 9 13 15 16 17 17 18 20 20 19
3 1 3 3 4 5 4 3 3 3 3 4 5 5 6 6 4 7 8 8 6 7 6 6 6 9 7 5 6 9 12 11 7 6 9 13 15 16 16 16 17 20 19 18
5 2 5 6 5 4 1 2 2 5 3 2 5 3 2 5 3 6 3 1 6 6 7 8 12 13 11 9 8 7 7 9 5 7 9 12 14 17 15 15 16 18 18 17
4 3 4 4 2 4 5 5 8 5 5 5 2 4 8 10 9 6 1 2 4 5 5 6 9 9 11 12 10 7 7 7 10 8 9 12 15 16 13 14 16 16 17 16
2 1 2 2 6 7 7 11 13 12 7 9 11 16 13 16 8 4 3 3 5 7 7 5 7 13 13 10 7 8 9 11 14 12 11 11 16 14 13 15 16 16 17 17
4 4 2 0 6 6 7 8 12 10 10 10 8 11 8 8 6 4 2 4 6 7 7 8 11 13 9 6 12 15 15 15 16 16 14 13 15 15 15 17 17 18 16 18
5 4 2 2 3 1 6 1 7 5 5 8 6 4 6 6 7 6 10 9 9 10 9 16 21 21 19 20 19 21 20 20 20 18 17 16 17 15 15 18 18 19 17 19
8 4 2 3 2 5 2 3 3 1 4 8 7 8 7 8 6 8 11 13 8 12 19 20 24 26 28 28 29 31 30 28 22 16 15 19 18 17 15 17 19 19 19 19
9 7 4 1 3 5 4 5 6 2 1 6 9 9 10 10 6 4 11 21 24 23 23 25 27 29 31 32 32 32 29 31 25 25 26 24 21 18 15 17 21 21 18 19
3 2 5 2 2 6 3 6 3 3 5 7 10 7 7 4 4 5 16 18 22 24 26 30 31 29 30 28 30 32 32 29 31 35 26 24 18 13 14 18 22 17 18 17
6 5 3 2 2 6 2 4 3 3 6 8 9 10 10 9 11 13 18 21 25 25 25 27 27 26 27 29 31 29 28 35 29 22 19 16 14 18 16 20 21 18 17 19
4 6 5 6 5 6 3 12 6 7 7 8 8 7 9 9 11 14 14 22 25 28 29 34 35 32 33 33 31 30 32 33 26 22 19 18 20 16 16 19 20 17 19 17
4 7 3 5 2 4 13 10 11 11 9 6 10 7 10 8 11 13 18 21 21 24 26 28 30 29 28 33 33 34 35 19 11 12 13 15 13 12 18 18 17 17 14 19
2 5 6 3 3 14 11 8 8 9 10 9 11 7 6 6 6 9 11 15 18 19 21 23 23 24 26 27 29 31 31 31 18 11 16 16 17 22 13 14 12 15 17 19
1 2 3 2 3 7 4 7 10 6 4 3 2 4 4 6 5 8 9 13 15 16 18 21 23 24 26 25 24 23 24 25 27 21 17 17 16 15 13 15 18 17 21 22
Wind_Direction
22 67 31 345 330 45 94 91 99 64 331 114 128 124 119 101 80 81 85 79 64 53 57 65 60 76 60 50 40 28 28 25 21 23 18 19 14 17 20 20 16 17 15 16
45 50 318 345 38 51 88 112 114 76 323 98 135 141 147 113 113 104 92 79 74 48 35 31 25 46 61 52 41 32 27 31 27 22 20 21 17 20 16 19 17 26 17 13
102 195 5 70 34 40 36 46 30 123 145 292 116 113 129 125 119 103 96 101 88 104 75 40 27 8 64 59 50 40 28 28 30 22 19 18 18 21 15 13 13 6 15 15
83 331 99 73 61 10 91 354 335 300 141 216 154 192 176 160 153 137 134 130 133 84 55 43 25 13 75 60 46 36 29 32 29 22 21 21 18 12 9 12 10 10 7 10
325 34 60 76 40 4 134 294 4 341 336 23 250 92 205 167 173 151 154 137 94 66 61 41 26 11 81 61 50 39 28 26 25 22 21 19 16 14 12 11 8 12 5 4
87 66 36 21 217 93 184 213 202 213 150 41 234 119 234 168 141 135 118 98 88 75 56 28 33 28 39 40 43 38 26 20 24 20 13 17 16 9 7 5 7 5 1 357
70 57 114 6 296 213 263 65 22 18 15 210 112 58 207 141 116 124 117 103 103 89 67 32 31 35 30 17 58 44 27 23 21 15 8 9 11 10 7 2 2 2 0 355
130 325 359 342 38 352 42 85 141 169 159 303 161 183 234 141 120 123 112 124 105 101 87 63 40 56 13 348 72 36 24 21 14 11 7 3 2 3 4 2 1 360 357 355
118 71 23 30 25 23 14 49 217 103 290 69 203 44 10 130 123 122 127 105 110 102 83 72 43 72 21 342 55 28 18 16 8 7 358 358 1 1 1 360 356 355 352 354
95 110 191 127 284 11 85 169 65 4 96 270 294 138 227 167 159 152 106 113 109 97 73 59 63 25 356 340 330 332 358 1 356 0 358 355 354 355 355 354 354 352 350 350
84 106 155 97 197 166 52 59 49 116 123 165 245 287 176 137 123 108 100 141 139 140 167 262 248 247 278 307 318 336 312 328 337 353 352 350 345 348 347 348 348 348 347 347
63 125 128 106 30 6 3 133 140 125 256 229 153 271 128 121 134 159 199 195 191 178 203 213 263 249 288 304 329 331 324 297 291 326 333 341 337 339 339 340 340 341 344 345
187 40 90 17 7 4 48 29 105 105 76 219 138 256 161 147 160 240 216 220 212 199 213 213 251 235 226 232 277 288 285 281 267 307 321 332 327 329 332 334 333 336 338 341
90 128 151 185 193 131 137 171 181 117 115 235 224 244 160 37 298 296 23 174 199 213 216 235 256 245 221 234 249 267 301 298 256 289 310 322 316 316 321 325 327 328 333 331
101 118 101 218 157 153 181 176 175 176 201 163 250 313 302 306 287 268 165 289 308 271 269 257 256 250 235 238 241 236 277 266 273 249 290 296 304 303 307 317 322 321 322 322
59 181 90 300 223 237 249 210 194 204 220 254 267 280 267 265 259 330 302 20 323 293 273 267 297 298 272 269 234 257 262 276 266 248 266 281 291 286 296 309 314 315 315 320
117 115 86 206 47 30 321 226 211 197 195 198 208 234 248 270 274 275 261 283 276 284 300 275 267 282 273 271 279 270 260 263 260 259 255 271 265 269 282 299 304 308 308 319
111 101 91 177 56 24 240 146 137 154 195 196 202 266 14 23 1 20 43 38 15 358 354 346 346 337 322 309 289 289 273 261 255 250 254 264 252 250 272 292 295 300 306 312
132 113 85 125 212 275 344 31 65 80 17 45 62 35 27 15 35 341 20 5 342 332 333 330 328 324 322 321 318 307 277 262 246 240 261 271 241 249 268 282 288 292 299 305
147 130 119 101 138 216 218 135 71 47 144 20 43 34 23 23 23 308 339 336 335 331 330 326 324 319 315 314 310 305 300 286 241 252 262 257 245 252 267 278 282 285 287 300
113 60 152 173 214 288 253 107 88 126 231 48 51 41 29 27 235 262 323 324 320 319 318 314 309 303 303 310 314 303 299 281 278 264 245 234 232 247 264 276 277 277 291 287
163 138 185 143 109 264 279 124 129 189 54 59 43 30 21 3 352 343 335 330 325 317 317 317 311 308 315 316 310 303 302 302 296 243 213 212 246 253 265 267 270 280 283 293
176 171 174 166 208 224 70 105 99 78 73 54 49 20 11 355 348 352 355 5 13 4 3 0 1 357 350 342 333 321 314 306 280 244 242 249 239 243 261 266 275 281 289 282
206 178 131 98 261 78 82 63 67 68 62 41 43 31 29 10 5 7 6 358 1 357 357 356 358 357 357 357 2 1 351 323 286 274 263 253 231 241 259 264 278 286 290 297
186 132 178 180 125 96 61 63 74 64 40 58 29 31 31 23 2 1 1 360 355 355 355 355 349 347 347 351 352 357 359 348 339 323 299 280 280 275 274 276 287 300 298 303
23 330 144 151 94 100 84 80 67 65 12 46 354 316 357 14 337 345 341 346 344 348 347 346 342 341 338 340 343 344 346 340 354 358 348 333 323 309 318 312 309 304 299 300